Regional Weather Roundup
Issued by NWS Kansas City/Pleasant Hill, MO

Home | Current Version | Previous Version | Text Only | Print | Product List | Glossary On
Versions: 1 2 3 4 5 6 7 8 9 10 11 12 13 14 15 16 17 18 19 20 21 22 23 24 25 26 27 28 29 30 31 32 33 34 35 36 37 38 39 40 41 42 43 44 45 46 47 48 49 50
000
ASUS43 KEAX 202210
RWREAX

WEATHER ROUNDUP FOR EASTERN KANSAS AND NORTHWEST MISSOURI
NATIONAL WEATHER SERVICE KANSAS CITY/PLEASANT HILL MO
500 PM CDT FRI APR 20 2018

KSZ040-057-103>105-MOZ028-029-037-043-202300-
...KANSAS CITY METROPOLITAN AREA...

CITY           SKY/WX    TMP DP  RH WIND       PRES   REMARKS
K.C. INTL      CLOUDY    61  25  25 SE15      30.25F
K.C. DOWNTOWN  CLOUDY    64  26  23 E12G24    30.24F
LEES SUMMIT    CLOUDY    61  24  24 SE13G24   30.26F
OLATHE - IXD   CLOUDY    63  25  23 E15G24    30.24F
OLATHE - OJC   MOSUNNY   61  27  27 E15G22    30.23F
LAWRENCE       MOSUNNY   64  25  22 SE14      30.24F

$$

MOZ001>008-011>017-020>025-030>033-038>040-044>046-053-054-202300-
...NORTHERN AND CENTRAL MISSOURI...

CITY           SKY/WX    TMP DP  RH WIND       PRES   REMARKS
ST. JOSEPH     CLOUDY    62  27  26 E15G26    30.26F
MOSBY          PTCLDY    61  21  21 SE15G21   30.27F
WARRENSBURG    SUNNY     63  27  25 E10G22    30.27F
WHITEMAN AFB   PTSUNNY   64  27  25 SE10G18   30.24F
CLINTON        SUNNY     66  28  24 SE9       30.26F
SEDALIA        SUNNY     64  27  24 E17       30.30F
WARSAW         NOT AVBL
CHILLICOTHE      N/A     62  22  21 SE15G24   30.31F
KIRKSVILLE     MOSUNNY   61  22  22 SE14      30.33F

$$

MOZ041-047>049-056>058-063>065-088>090-097-202300-
...EASTERN AND SOUTHERN MISSOURI...

CITY           SKY/WX    TMP DP  RH WIND       PRES   REMARKS
ST. LOUIS INTL CLOUDY    61  22  22 E14G21    30.38F
SPIRIT OF STL  MOSUNNY   61  22  22 E10       30.36F
COLUMBIA       MOSUNNY   64  18  17 E14G23    30.31F
JEFFERSON CITY PTSUNNY   66  13  12 SE15      30.30F
OSAGE BEACH    SUNNY     67  23  19 E10G18    30.29F
SPRINGFIELD    CLOUDY    65  26  23 SE14      30.24F
BRANSON        PTSUNNY   64  25  22 E12G17    30.26F
JOPLIN         CLOUDY    64  32  30 SE17      30.21F
WEST PLAINS    SUNNY     66  14  13 E10       30.29F

$$

IAZ060-094-KSZ022-034>040-054-083-096-NEZ052-066-093-202300-
...KANSAS...SOUTHEAST NEBRASKA AND IOWA...

CITY           SKY/WX    TMP DP  RH WIND       PRES   REMARKS
TOPEKA         CLOUDY    63  29  27 SE18G24   30.22F
MANHATTAN      CLOUDY    64  28  25 SE14G25   30.19F
EMPORIA        MOSUNNY   63  28  26 SE20G29   30.17F
CHANUTE        CLOUDY    65  28  24 SE15G26   30.19F
WICHITA        CLOUDY    66  31  27 SE23G31   30.11F
OMAHA          CLOUDY    62  27  26 E15G22    30.27F
LINCOLN        CLOUDY    60  25  26 SE8       30.28R
FALLS CITY     MOSUNNY   61  26  26 E17G23    30.24F
LAMONI         SUNNY     61  27  27 SE12      30.30F
DES MOINES     CLOUDY    59  27  29 E9        30.34F

$$




USA.gov is the U.S. government's official web portal to all federal, state and local government web resources and services.